[[{"header":{"parameterUnit":"m.s-1","parameterCategory":1,"la1":30.2991,"la2":30.254,"lo1":-89.0895,"lo2":-89.0444,"dy":0.0017,"dx":0.0017,"nx":28,"ny":28,"refTime":"2025-06-02T09:00:00:Z","depth":0,"parameterNumber":2,"parameterNumberName":"U-component_of_WINDS"},"data":[0,0,0,0,0,0,0,0,0,0,0,0,0,0,0,0,0,0,0,0,0,0,0,0,0,0,0,0,0,0,0,0,0,0,0,0,0,0,0,0,0,0,0,0,0,0,0,0,0,0,0,0,0,0,0,0,0,0,-4.8203,-4.8203,0,-4.82,-4.82,-4.82,-4.8174,-4.8173,-4.8173,-4.8172,-4.8168,-4.8169,-4.8169,0,0,0,0,0,0,0,0,0,0,0,0,0,-4.8185,-4.8185,-4.8203,-4.8203,-4.8203,-4.82,-4.82,-4.82,-4.8174,-4.8173,-4.8172,-4.8172,-4.8168,-4.8169,-4.8169,0,0,0,0,0,0,0,0,0,0,0,0,0,-4.8188,-4.8185,-4.8203,-4.819,-4.8188,-4.82,-4.82,-4.82,-4.8174,-4.8173,-4.8172,-4.8171,-4.8168,-4.8169,-4.8169,-4.8193,0,0,-4.8172,-4.8172,0,0,0,0,0,0,0,0,-4.8188,-4.8189,-4.8192,-4.8191,-4.8189,-4.8186,-4.8192,-4.8198,-4.8174,-4.818,-4.8172,-4.8171,-4.8175,-4.8175,-4.8177,-4.8193,-4.8193,-4.8172,-4.8172,-4.8173,-4.8173,0,0,0,0,0,0,0,-4.8188,-4.8189,-4.8202,-4.8192,-4.819,-4.8183,-4.8183,-4.8193,-4.8183,-4.8179,-4.8177,-4.8177,-4.8174,-4.8176,-4.8176,-4.8193,-4.8172,-4.8172,-4.8173,-4.8173,-4.8227,-4.8228,0,0,0,0,0,0,-4.819,-4.8189,-4.8202,-4.8202,-4.8186,-4.8184,-4.8184,-4.8188,-4.8183,-4.8181,-4.8178,-4.8176,-4.8175,-4.8176,-4.8176,-4.8202,-4.8173,-4.8173,-4.8174,-4.8226,-4.8227,-4.8228,0,0,0,0,0,0,-4.8189,-4.8191,-4.8202,-4.8195,-4.8196,-4.8186,-4.8191,-4.8189,-4.819,-4.8182,-4.818,-4.8182,-4.8174,-4.8175,-4.8189,-4.8201,-4.8174,-4.8174,-4.8225,-4.8226,-4.8228,-4.8255,0,0,0,0,0,0,-4.8189,-4.8191,-4.8201,-4.8195,-4.8196,-4.8215,-4.8192,-4.8189,-4.8192,-4.8189,-4.8185,-4.8183,-4.8174,-4.8188,-4.819,-4.8202,-4.8175,-4.8224,-4.8225,-4.8227,-4.8252,-4.8257,-4.8261,0,0,0,0,0,-4.8189,-4.8209,-4.8201,-4.8203,-4.8208,-4.8216,-4.8216,-4.8205,-4.8193,-4.8202,-4.8196,-4.8183,-4.82,-4.819,-4.8191,-4.8204,-4.8223,-4.8225,-4.8227,-4.8251,-4.8256,-4.826,0,0,0,0,0,0,-4.8215,-4.8208,-4.8199,-4.8218,-4.8218,-4.8212,-4.8222,-4.8212,-4.8215,-4.8212,-4.8198,-4.8197,-4.8212,-4.821,-4.8198,-4.8226,-4.8209,-4.8212,-4.8227,-4.8231,-4.8235,-4.8235,-4.8175,0,0,0,0,0,-4.8224,-4.8231,-4.8224,-4.8242,-4.8242,-4.8232,-4.8236,-4.8227,-4.8226,-4.8226,-4.8221,-4.822,-4.8225,-4.8229,-4.8233,-4.8253,-4.825,-4.8262,-4.8266,-4.827,-4.8271,-4.828,-4.8284,-4.8235,-4.8235,-4.8235,0,0,-4.8241,-4.8237,-4.8243,-4.8247,-4.8246,-4.8253,-4.8232,-4.8241,-4.8246,-4.8227,-4.8239,-4.8236,-4.8234,-4.825,-4.8257,-4.8248,-4.8285,-4.8273,-4.8275,-4.8275,-4.8282,-4.8287,-4.8291,-4.8237,-4.8237,-4.8236,0,0,-4.8274,-4.8274,-4.8287,-4.8286,-4.8284,-4.8278,-4.8281,-4.8276,-4.8273,-4.8285,-4.827,-4.8276,-4.8286,-4.8284,-4.8285,-4.8318,-4.8305,-4.832,-4.834,-4.8348,-4.8352,-4.8355,-4.8365,-4.8369,-4.8322,-4.8322,-4.8322,0,-4.8295,-4.8306,-4.8295,-4.8305,-4.8306,-4.8289,-4.8302,-4.8302,-4.8302,-4.8303,-4.8293,-4.8304,-4.8302,-4.8316,-4.8324,-4.8326,-4.8328,-4.8319,-4.8352,-4.8356,-4.8358,-4.8367,-4.8371,-4.8324,-4.8324,-4.8323,-4.8323,0,-4.833,-4.8338,-4.8349,-4.8349,-4.8352,-4.8363,-4.8353,-4.8358,-4.8349,-4.8344,-4.8355,-4.8352,-4.8355,-4.8358,-4.835,-4.8371,-4.8366,-4.8355,-4.8337,-4.8365,-4.8373,-4.8376,-4.8326,-4.8325,-4.8325,-4.8325,0,0,-4.8379,-4.8373,-4.8377,-4.8376,-4.8373,-4.8378,-4.8389,-4.8391,-4.8394,-4.8395,-4.8402,-4.841,-4.84,-4.84,-4.8392,-4.84,-4.8424,-4.8388,-4.8387,-4.8392,-4.8444,-4.8451,-4.8455,-4.8416,-4.8417,-4.8418,-4.8444,0,-4.841,-4.8426,-4.8417,-4.8434,-4.844,-4.8425,-4.8433,-4.8432,-4.8427,-4.8431,-4.8426,-4.8431,-4.8418,-4.8418,-4.8425,-4.8419,-4.8433,-4.8418,-4.8421,-4.8421,-4.8419,-4.846,-4.8467,-4.8492,-4.8447,-4.8448,-4.8448,0,-4.8447,-4.8448,-4.8467,-4.8461,-4.8463,-4.8471,-4.8472,-4.8477,-4.8475,-4.8471,-4.8471,-4.8461,-4.847,-4.8455,-4.8466,-4.8455,-4.8456,-4.8454,-4.8454,-4.8452,-4.8435,-4.8456,-4.8499,-4.8502,-4.8453,-4.8453,-4.8453,0,-4.8477,-4.8485,-4.8496,-4.8496,-4.849,-4.8496,-4.8494,-4.8491,-4.8493,-4.8494,-4.8495,-4.8497,-4.8498,-4.8499,-4.849,-4.848,-4.8501,-4.8486,-4.8497,-4.8497,-4.85,-4.8499,-4.8541,-4.8505,-4.8505,-4.8505,-4.8505,0,-4.8511,-4.8522,-4.8509,-4.8516,-4.8527,-4.8517,-4.8528,-4.8525,-4.8522,-4.8527,-4.8515,-4.852,-4.8509,-4.8512,-4.8505,-4.8514,-4.8515,-4.8511,-4.8509,-4.8511,-4.8511,-4.851,-4.8507,-4.8506,-4.8506,-4.8506,-4.8505,0,-4.8545,-4.8538,-4.8549,-4.8543,-4.8542,-4.855,-4.8545,-4.855,-4.8545,-4.8552,-4.8553,-4.8544,-4.8548,-4.8539,-4.8542,-4.8537,-4.8549,-4.8545,-4.855,-4.8547,-4.8558,-4.8556,-4.8599,-4.8603,-4.8566,-4.8567,-4.8567,0,-4.8566,-4.8574,-4.8569,-4.8571,-4.857,-4.8574,-4.8576,-4.8566,-4.8568,-4.8566,-4.8571,-4.8574,-4.8575,-4.8582,-4.8576,-4.8577,-4.8572,-4.8587,-4.8572,-4.8573,-4.8569,-4.8568,-4.8568,-4.8589,-4.8589,-4.859,-4.859,0,-4.8602,-4.8597,-4.86,-4.8601,-4.8604,-4.8604,-4.8604,-4.8607,-4.8596,-4.8599,-4.8602,-4.8604,-4.8606,-4.8608,-4.8609,-4.8606,-4.8596,-4.8595,-4.8597,-4.8598,-4.86,-4.8597,-4.8555,-4.8594,-4.8593,-4.8593,-4.8593,-4.8593,-4.8628,-4.8634,-4.8631,-4.8634,-4.8633,-4.8633,-4.8637,-4.8632,-4.8635,-4.8636,-4.863,-4.8635,-4.8632,-4.8631,-4.863,-4.8633,-4.8626,-4.863,-4.8631,-4.8631,-4.8632,-4.8601,-4.8634,-4.8633,-4.8633,-4.8633,-4.8633,0,-4.8661,-4.8659,-4.8662,-4.8661,-4.8664,-4.8655,-4.8654,-4.8656,-4.866,-4.8659,-4.8661,-4.8664,-4.8667,-4.8661,-4.8662,-4.8665,-4.8661,-4.8666,-4.8664,-4.8663,-4.8639,-4.8636,-4.8669,-4.8669,-4.8669,-4.8669,-4.8669,-4.8669,-4.8678,-4.8687,-4.8682,-4.869,-4.8687,-4.8692,-4.8692,-4.8691,-4.869,-4.8694,-4.8696,-4.8692,-4.8689,-4.869,-4.8691,-4.8689,-4.8689,-4.8696,-4.8692,-4.8669,-4.8665,-4.8662,-4.8659,-4.8696,-4.8697,-4.8716,-4.8716,-4.8716]},{"header":{"parameterUnit":"m.s-1","parameterCategory":1,"la1":30.2991,"la2":30.254,"lo1":-89.0895,"lo2":-89.0444,"dy":0.0017,"dx":0.0017,"nx":28,"ny":28,"refTime":"2025-06-02T09:00:00:Z","depth":0,"parameterNumber":3,"parameterNumberName":"V-component_of_WINDS"},"data":[0,0,0,0,0,0,0,0,0,0,0,0,0,0,0,0,0,0,0,0,0,0,0,0,0,0,0,0,0,0,0,0,0,0,0,0,0,0,0,0,0,0,0,0,0,0,0,0,0,0,0,0,0,0,0,0,0,0,3.0853,3.0855,0,3.1008,3.101,3.1011,3.1041,3.1039,3.1038,3.1037,3.1195,3.12,3.1205,0,0,0,0,0,0,0,0,0,0,0,0,0,3.0584,3.0589,3.0853,3.0855,3.0857,3.1008,3.101,3.1012,3.1041,3.1039,3.1038,3.1036,3.1193,3.1199,3.1206,0,0,0,0,0,0,0,0,0,0,0,0,0,3.0716,3.059,3.0853,3.089,3.0895,3.1007,3.101,3.1012,3.1041,3.1039,3.1038,3.1036,3.1191,3.1199,3.1207,3.1293,0,0,3.1231,3.1235,0,0,0,0,0,0,0,0,3.0708,3.0726,3.0882,3.0887,3.0893,3.1003,3.0973,3.1107,3.1042,3.0986,3.1037,3.1035,3.1132,3.1145,3.1178,3.1301,3.1307,3.1232,3.1237,3.124,3.1242,0,0,0,0,0,0,0,3.0699,3.0719,3.0914,3.0885,3.0891,3.0899,3.0916,3.0998,3.1067,3.099,3.0993,3.1011,3.1135,3.117,3.1182,3.131,3.1232,3.1239,3.1244,3.1247,3.1514,3.1516,0,0,0,0,0,0,3.0684,3.0711,3.091,3.0919,3.0794,3.0905,3.0924,3.097,3.1067,3.108,3.1012,3.1011,3.1158,3.1173,3.1188,3.1298,3.124,3.1248,3.1252,3.1512,3.1514,3.1517,0,0,0,0,0,0,3.0678,3.0701,3.0903,3.0816,3.0842,3.0912,3.0963,3.0974,3.1009,3.1083,3.1096,3.1036,3.1157,3.1177,3.1268,3.1304,3.1251,3.1259,3.1509,3.1513,3.1516,3.1517,0,0,0,0,0,0,3.067,3.0699,3.0732,3.0817,3.0847,3.098,3.0965,3.0978,3.1023,3.1024,3.1109,3.1121,3.1157,3.1255,3.1276,3.1314,3.1265,3.1506,3.1511,3.1515,3.1514,3.152,3.1525,0,0,0,0,0,3.066,3.0725,3.0733,3.0757,3.089,3.0982,3.1,3.104,3.1026,3.106,3.1108,3.1118,3.1296,3.1264,3.1287,3.1328,3.1504,3.1509,3.1514,3.1512,3.1519,3.1525,0,0,0,0,0,0,3.0642,3.0737,3.0747,3.0842,3.0904,3.0987,3.1031,3.1046,3.1113,3.1111,3.1158,3.1177,3.1266,3.1306,3.1269,3.1419,3.1399,3.1409,3.1389,3.1397,3.1402,3.1391,3.1272,0,0,0,0,0,3.0649,3.0716,3.0795,3.0871,3.0902,3.0961,3.1003,3.1029,3.1095,3.1121,3.1176,3.1239,3.131,3.1355,3.1424,3.152,3.154,3.1559,3.1565,3.1569,3.1578,3.1633,3.1644,3.1534,3.1534,3.1534,0,0,3.0665,3.0725,3.0764,3.0869,3.092,3.0989,3.0983,3.1056,3.1108,3.1132,3.1222,3.1264,3.1339,3.1433,3.1477,3.1469,3.1612,3.1576,3.1578,3.1585,3.164,3.165,3.1659,3.1537,3.1537,3.1536,0,0,3.0729,3.078,3.085,3.0902,3.098,3.1019,3.1036,3.1118,3.1147,3.1238,3.1259,3.1321,3.1441,3.1494,3.1536,3.1622,3.1634,3.1643,3.1672,3.1726,3.1735,3.1743,3.1775,3.1786,3.1651,3.1651,3.1651,0,3.0738,3.0842,3.0884,3.0957,3.1003,3.1029,3.1102,3.1149,3.1246,3.1277,3.1267,3.142,3.1472,3.158,3.1601,3.1634,3.1656,3.1634,3.173,3.1739,3.1747,3.1778,3.179,3.1652,3.1651,3.1651,3.1651,0,3.0851,3.0923,3.0971,3.1064,3.1116,3.1187,3.1241,3.1288,3.131,3.135,3.1444,3.1507,3.159,3.1618,3.1639,3.173,3.1723,3.1721,3.1702,3.1757,3.1788,3.18,3.1653,3.1652,3.1652,3.1652,0,0,3.0908,3.1025,3.1042,3.1085,3.1174,3.1231,3.1304,3.1386,3.1427,3.1492,3.1556,3.1658,3.1658,3.1706,3.1734,3.1781,3.1847,3.1774,3.1776,3.1787,3.1954,3.1956,3.1969,3.1856,3.1858,3.186,3.1948,0,3.0984,3.1116,3.1157,3.1268,3.1336,3.1363,3.1427,3.1489,3.1529,3.1593,3.1637,3.171,3.1703,3.1732,3.178,3.1829,3.1882,3.1823,3.1917,3.192,3.1899,3.1985,3.1987,3.2067,3.196,3.1962,3.1964,0,3.109,3.1159,3.1277,3.1359,3.1389,3.1446,3.1526,3.1586,3.1657,3.1683,3.1738,3.1763,3.1841,3.1818,3.1928,3.1887,3.1928,3.1958,3.1962,3.1973,3.1946,3.2,3.2093,3.2106,3.1982,3.1981,3.198,0,3.1122,3.1244,3.1331,3.1368,3.1465,3.1505,3.1547,3.1616,3.1664,3.1733,3.1765,3.1842,3.1885,3.1944,3.1989,3.1967,3.2096,3.2076,3.2121,3.212,3.2148,3.2146,3.225,3.2171,3.2171,3.2171,3.2171,0,3.1204,3.1275,3.1348,3.1401,3.1483,3.1529,3.1609,3.1652,3.1714,3.1778,3.1804,3.1863,3.1918,3.1985,3.202,3.2107,3.2126,3.215,3.2159,3.2149,3.2146,3.2177,3.2173,3.2174,3.2173,3.2173,3.2172,0,3.1254,3.1305,3.1402,3.1486,3.1509,3.1566,3.1639,3.1692,3.1734,3.1814,3.1835,3.1901,3.1981,3.2031,3.2132,3.2156,3.2252,3.2258,3.2229,3.2233,3.2277,3.2273,3.2406,3.2427,3.2332,3.2333,3.2333,0,3.1303,3.1359,3.145,3.1495,3.1538,3.1609,3.1658,3.1706,3.1756,3.1842,3.1886,3.1967,3.2036,3.2162,3.2219,3.2297,3.2306,3.2348,3.2318,3.2307,3.2309,3.2306,3.2313,3.2353,3.2354,3.2354,3.2355,0,3.1386,3.1409,3.1479,3.1558,3.1616,3.168,3.1745,3.178,3.1838,3.1893,3.1976,3.2029,3.2133,3.2214,3.2298,3.2342,3.2359,3.2364,3.2379,3.237,3.2351,3.2364,3.2244,3.2361,3.236,3.236,3.2359,3.2359,3.1439,3.1491,3.1564,3.1641,3.1695,3.1755,3.181,3.1859,3.1929,3.2018,3.2042,3.2128,3.22,3.2314,3.236,3.2429,3.2423,3.2444,3.245,3.2455,3.2457,3.2339,3.2444,3.2443,3.2443,3.2443,3.2443,0,3.1526,3.1574,3.1645,3.1735,3.1796,3.1806,3.1878,3.1929,3.2005,3.207,3.2137,3.2233,3.2312,3.2376,3.2458,3.2501,3.2511,3.2521,3.2519,3.253,3.2456,3.2436,3.2512,3.2512,3.2512,3.2512,3.2512,3.2512,3.1578,3.1668,3.1699,3.1816,3.1864,3.1949,3.199,3.2046,3.2099,3.2204,3.2271,3.2312,3.2377,3.2464,3.2538,3.2555,3.2584,3.2593,3.2612,3.2542,3.2534,3.2527,3.2509,3.2599,3.2599,3.268,3.2681,3.2681]}]]